SL-14 R/B, 18422

Orbit data source: Space-Track

SL-14 R/B, 18422 is space debris in LEO originally from a launch on Tue, 20 Oct 1987 UTC launched from the Plesetsk Missile And Space Complex (PKMTR). Debris objects in space refer to the collection of defunct objects orbiting the Earth. Examples of debris include non-operational satellites, rocket bodies, and fragments generated from explosions, collisions, or faulty payload assembly.

Loading next visibility...
Identifier
18422, 1987-088B
Orbit
LEO
Country
Flag of CISCIS
Related business
Manufacturer
Yuzhnoe
Mission
Spacecraft
Bus & Motor
S5M, Unknown motor
Mass
1,600 kg wet, 1,600 kg dry
Launch date (UTC)
1987-10-20 (39 years ago)
Launch vehicle
Unknown
Launch site
Plesetsk Missile And Space Complex (PKMTR)
Object type
Payload
Rocket body
Debris
Shape & HBR
Cyl, 1.4 m
Radar Cross Section
7.351 m², Large (>1 m²)

Expand to show TLE details & history
Last TLE update: 11 hours ago

TLE from 11 hours ago
0 SL-14 R/B
1 18422U 87088B   26126.16995076  .00000377  00000-0  40872-4 0  9990
2 18422  82.5134  13.1238 0018695 176.1515 183.9849 14.85384135 61837
Epoch: 2026-05-06T04:04Z
TLE epoch observation values (Epoch: 2026-05-06T04:04:43.745Z)
Latitude
0.00001°
Longitude
87.90724°
Altitude
628.461 km
Speed
7.537 km/s
True Right ascension
00h 52m 29s
True Declination
0° 00' 00"
Sunlit
Object was in daylight at epoch
Visualization orbit readout
Latitude
Unknown
Longitude
Unknown
Altitude
Unknown
Speed
Unknown
Apparent Right ascension
Unknown
Apparent Declination
Unknown
Sunlit
N/A
Visualization observer readout
Local Sidereal Time
23:29:07
Azimuth
Unknown
Elevation
Unknown
Doppler factor
Unknown
Orbital elements
Apogee altitude
622.459 km
Perigee altitude
596.333 km
Semi-major axis
6,987.533 km
Eccentricity
0.00187
Inclination
82.5134°
RAAN
13.1238°
Arg. of periapsis
176.1515°
True anomaly
183.97005°
Mean anomaly
183.9849°
Eccentric anomaly
183.97747°
Mean motion
3.71584 °/min
Orbital period
96.88 mins
BSTAR
0.000040872
Loading maneuver chart data...
Computing Atmospheric mass density...
Loading historical data...
Loading historical data...
Loading historical data...
Loading historical data...
Loading historical data...
Loading historical data...
Loading historical data...
Other satellites on launch #88 in the year 1987 (1987-10-20 UTC)

Documentation

Showing up to 5 results
|